Flag for Germany Weather past 2 weeks in Tübingen, Baden-Württemberg, Germany

Now
52 °F

Sunny.


Feels Like: 52 °F
Forecast: 45 / 62 °F
Wind: 1 mph from North

Location: Stuttgart-Echterdingen

Current Time: Sep 5, 2015 at 8:45:45 AM

Latest Report: Sep 5, 2015 at 8:20 AM


Visibility: 10 mi

Pressure: 30.04 "Hg

Humidity: 82%

Dew point: 46 °F

Location of TübingenLocation

Historic Weather in Tübingen — Graph

°F

Tübingen temperature yesterday

Maximum temperature yesterday: 66 °F (at 12:50 PM)
Minimum temperature yesterday: 50 °F (at 6:20 AM)
Average temperature yesterday: 59 °F

Past Weeks' High & Low Weather Summary

 TemperatureHumidityPressure
High91 °F (Aug 30, 2:20 PM)100% (Aug 23, 8:50 PM)30.27 "Hg (Aug 23, 8:50 PM)
Low46 °F (Sep 5, 4:50 AM)20% (Aug 31, 5:20 PM)29.71 "Hg (Aug 24, 1:50 PM)
Average67 °F66%30.01 "Hg
* Reported Aug 21 7:20 AM — Sep 5 7:50 AM, Tübingen, Weather by CustomWeather, © 2015

Note: Actual official high and low records may vary slightly from our data, if they occured in-between our weather recording intervals... More about our weather records

Advertising

Tübingen weather history for previous 24 hours

 ConditionsComfort  
Time TempWeatherWind HumidityBarometerVisibility
7:50 AM
Sat, Sep 5
50 °FPassing clouds.5 mph82%30.04 "HgN/A
7:20 AM48 °FPassing clouds.5 mph82%30.04 "HgN/A
6:50 AM48 °FClear.7 mph82%30.01 "Hg10 mi
6:20 AM46 °FClear.8 mph87%30.01 "Hg10 mi
5:20 AM48 °FClear.3 mph82%30.01 "Hg10 mi
4:50 AM46 °FClear.3 mph82%30.01 "Hg10 mi
4:20 AM48 °FClear.1 mph82%30.01 "Hg10 mi
3:50 AM50 °FClear.No wind76%30.01 "Hg10 mi
3:20 AM50 °FPassing clouds.3 mph76%30.01 "HgN/A
2:50 AM52 °FPassing clouds.3 mph72%30.01 "HgN/A
2:20 AM52 °FClear.2 mph72%30.01 "Hg10 mi
1:50 AM54 °FClear.3 mph67%30.01 "Hg10 mi
1:20 AM54 °FClear.2 mph67%30.01 "Hg10 mi
12:50 AM54 °FClear.3 mph67%30.01 "Hg10 mi
12:20 AM55 °FClear.2 mph63%30.01 "Hg10 mi
11:50 PM
Fri, Sep 4
55 °FClear.5 mph63%30.01 "Hg10 mi
11:20 PM57 °FClear.6 mph59%30.01 "Hg10 mi
10:50 PM57 °FClear.3 mph59%30.01 "Hg10 mi
10:20 PM57 °FClear.1 mph59%30.01 "Hg10 mi
9:50 PM59 °FClear.5 mph51%30.01 "Hg10 mi
9:20 PM59 °FClear.5 mph51%30.01 "Hg10 mi
8:50 PM59 °FSunny.5 mph51%30.01 "Hg10 mi
8:20 PM59 °FSunny.8 mph51%29.98 "Hg10 mi
7:50 PM61 °FSunny.8 mph48%29.98 "Hg10 mi
7:20 PM63 °FSunny.10 mph42%29.98 "Hg10 mi
6:50 PM63 °FPassing clouds.8 mph42%29.98 "HgN/A
6:20 PM64 °FPassing clouds.12 mph43%29.98 "HgN/A
5:50 PM64 °FPassing clouds.10 mph43%29.98 "HgN/A
5:20 PM66 °FPassing clouds.9 mph40%29.98 "HgN/A
4:50 PM66 °FPassing clouds.8 mph43%29.98 "HgN/A
4:20 PM64 °FPassing clouds.12 mph46%29.98 "HgN/A
3:50 PM64 °FPassing clouds.14 mph46%29.98 "HgN/A
3:20 PM66 °FSunny.6 mph43%30.01 "Hg10 mi
2:50 PM64 °FPassing clouds.7 mph46%30.01 "HgN/A
2:20 PM64 °FPassing clouds.8 mph43%30.01 "HgN/A
1:50 PM66 °FSunny.10 mph46%30.01 "Hg10 mi
1:20 PM64 °FScattered clouds.9 mph46%30.01 "HgN/A
12:50 PM66 °FScattered clouds.7 mph43%30.01 "HgN/A
12:20 PM64 °FScattered clouds.7 mph43%30.01 "HgN/A
11:50 AM63 °FPartly sunny.7 mph49%30.04 "HgN/A
11:20 AM61 °FPartly sunny.5 mph55%30.04 "HgN/A
10:50 AM59 °FPartly sunny.7 mph59%30.04 "HgN/A
10:20 AM59 °FPartly sunny.6 mph63%30.04 "HgN/A
9:50 AM59 °FPassing clouds.6 mph63%30.04 "HgN/A
9:20 AM59 °FSunny.5 mph68%30.01 "Hg10 mi
8:50 AM55 °FPartly sunny.5 mph82%30.01 "HgN/A
8:20 AM55 °FPartly sunny.1 mph77%30.04 "HgN/A
Weather by CustomWeather, © 2015

See weather overviewHow to use our weather pages